Location: Bussy-Saint-Georges
(48.8410°N, 2.7017°E)
Time: 16:18:11
(UTC+00:00)

CENTAUR R/B - Pass Details

Date: 18 October 2021
Orbit: 728 x 1459 km, 63.4° (Epoch: 26 November)

Event Time Altitude Azimuth Distance (km) Brightness Sun altitude
Rises 19:06:30 0° 297° (WNW) 3,801 6.9 -22.6°
Reaches altitude 10° 19:09:29 10° 310° (NW) 2,966 5.9 -23.0°
Maximum altitude 19:15:28 27° 7° (N) 2,167 4.3 -24.0°
Enters shadow 19:19:24 19° 46° (NE) 2,691 4.5 -24.6°
